• In Deutschland
  • Länderverzeichnis
  • Für 7 Tage
  • Wassertemperatur
  • Satellitenkarten
  • Wetterkarte
  • Widgets
  • user-avatar
    Anmelden

    Stündliche Wetter Loubomo

    Heute, 16 Januar, Dienstag

    Zeit Temperatur Niederschläge Wind Luftdruck Luftfeuchtigkeit
    00:00 +20°C° 0 mm 0 m/S 700 mmHg 44%
    01:00 +19°C° 0 mm 0 m/S 700 mmHg 47%
    02:00 +18°C° 0 mm 0 m/S 700 mmHg 48%
    03:00 +18°C° 0 mm 0 m/S 700 mmHg 48%
    04:00 +20°C° 0 mm 1 m/S 700 mmHg 49%
    05:00 +19°C° 0 mm 1 m/S 700 mmHg 55%
    06:00 +19°C° 0 mm 1 m/S 701 mmHg 62%
    07:00 +19°C° 0 mm 1 m/S 701 mmHg 68%
    08:00 +23°C° 0 mm 1 m/S 701 mmHg 57%
    09:00 +26°C° 0 mm 1 m/S 702 mmHg 46%
    10:00 +30°C° 0 mm 1 m/S 702 mmHg 35%
    11:00 +32°C° 0 mm 1 m/S 702 mmHg 29%
    12:00 +34°C° 0 mm 1 m/S 701 mmHg 22%
    13:00 +36°C° 0 mm 1 m/S 701 mmHg 16%
    14:00 +36°C° 0 mm 1 m/S 700 mmHg 15%
    15:00 +36°C° 0 mm 1 m/S 699 mmHg 14%
    16:00 +36°C° 0 mm 1 m/S 698 mmHg 14%
    17:00 +33°C° 0 mm 1 m/S 698 mmHg 18%
    18:00 +30°C° 0 mm 1 m/S 698 mmHg 22%
    19:00 +24°C° 0 mm 0 m/S 698 mmHg 26%
    20:00 +24°C° 0 mm 0 m/S 698 mmHg 28%
    21:00 +23°C° 0 mm 0 m/S 699 mmHg 30%
    22:00 +22°C° 0 mm 0 m/S 699 mmHg 31%
    23:00 +23°C° 0 mm 1 m/S 699 mmHg 35%

    Morgen, 17 Januar, Mittwoch

    Zeit Temperatur Niederschläge Wind Luftdruck Luftfeuchtigkeit
    00:00 +22°C° 0 mm 1 m/S 699 mmHg 39%
    01:00 +22°C° 0 mm 1 m/S 699 mmHg 42%
    02:00 +21°C° 0 mm 1 m/S 699 mmHg 55%
    03:00 +21°C° 0 mm 1 m/S 699 mmHg 68%
    04:00 +20°C° 0 mm 1 m/S 699 mmHg 80%
    05:00 +20°C° 0 mm 1 m/S 699 mmHg 86%
    06:00 +20°C° 0 mm 1 m/S 700 mmHg 91%
    07:00 +20°C° 0 mm 1 m/S 700 mmHg 96%
    08:00 +24°C° 0 mm 1 m/S 701 mmHg 78%
    09:00 +27°C° 0 mm 1 m/S 701 mmHg 61%
    10:00 +30°C° 0 mm 1 m/S 702 mmHg 44%
    11:00 +32°C° 0 mm 1 m/S 701 mmHg 35%
    12:00 +34°C° 0 mm 1 m/S 701 mmHg 27%
    13:00 +36°C° 0 mm 1 m/S 700 mmHg 19%
    14:00 +36°C° 0 mm 1 m/S 699 mmHg 18%
    15:00 +36°C° 0 mm 1 m/S 698 mmHg 17%
    16:00 +36°C° 0 mm 1 m/S 697 mmHg 16%
    17:00 +33°C° 0 mm 1 m/S 697 mmHg 20%
    18:00 +28°C° 0 mm 0 m/S 697 mmHg 25%
    19:00 +24°C° 0 mm 0 m/S 697 mmHg 30%
    20:00 +24°C° 0 mm 0 m/S 698 mmHg 31%
    21:00 +23°C° 0 mm 0 m/S 698 mmHg 32%
    22:00 +24°C° 0 mm 1 m/S 699 mmHg 34%
    23:00 +23°C° 0 mm 1 m/S 699 mmHg 38%

    übermorgen, 18 Januar, Donnerstag

    Zeit Temperatur Niederschläge Wind Luftdruck Luftfeuchtigkeit
    00:00 +22°C° 0 mm 1 m/S 699 mmHg 42%
    01:00 +22°C° 0 mm 1 m/S 699 mmHg 46%
    02:00 +21°C° 0 mm 1 m/S 699 mmHg 58%
    03:00 +20°C° 0 mm 1 m/S 699 mmHg 70%
    04:00 +20°C° 0 mm 1 m/S 699 mmHg 82%
    05:00 +20°C° 0 mm 1 m/S 699 mmHg 85%
    06:00 +20°C° 0 mm 1 m/S 700 mmHg 89%
    07:00 +20°C° 0 mm 1 m/S 700 mmHg 93%
    08:00 +22°C° 0 mm 1 m/S 701 mmHg 86%
    09:00 +24°C° 0 mm 1 m/S 701 mmHg 78%
    10:00 +25°C° 0 mm 1 m/S 702 mmHg 71%
    11:00 +28°C° 0 mm 1 m/S 701 mmHg 56%
    12:00 +31°C° 0 mm 1 m/S 701 mmHg 42%
    13:00 +34°C° 0 mm 1 m/S 700 mmHg 27%
    14:00 +35°C° 0 mm 1 m/S 700 mmHg 26%
    15:00 +35°C° 0 mm 1 m/S 699 mmHg 24%
    16:00 +33°C° 0 mm 0 m/S 698 mmHg 22%
    17:00 +30°C° 0 mm 0 m/S 698 mmHg 27%
    18:00 +27°C° 0 mm 0 m/S 698 mmHg 33%
    19:00 +24°C° 0 mm 0 m/S 698 mmHg 38%
    20:00 +24°C° 0 mm 0 m/S 699 mmHg 40%
    21:00 +25°C° 0 mm 1 m/S 699 mmHg 42%
    22:00 +24°C° 0 mm 1 m/S 700 mmHg 44%
    23:00 +24°C° 0 mm 1 m/S 700 mmHg 50%

    19 Januar, Freitag

    Zeit Temperatur Niederschläge Wind Luftdruck Luftfeuchtigkeit
    00:00 +23°C° 0 mm 1 m/S 700 mmHg 55%
    01:00 +23°C° 0 mm 1 m/S 699 mmHg 61%
    02:00 +22°C° 0 mm 1 m/S 699 mmHg 67%
    03:00 +22°C° 0 mm 1 m/S 699 mmHg 72%
    04:00 +20°C° 0 mm 0 m/S 699 mmHg 78%
    05:00 +20°C° 0 mm 0 m/S 700 mmHg 82%
    06:00 +20°C° 0 mm 0 m/S 700 mmHg 85%
    07:00 +22°C° 0 mm 1 m/S 701 mmHg 88%
    08:00 +24°C° 0 mm 1 m/S 701 mmHg 77%
    09:00 +27°C° 0 mm 1 m/S 702 mmHg 65%
    10:00 +29°C° 0 mm 1 m/S 702 mmHg 53%
    11:00 +32°C° 0 mm 1 m/S 702 mmHg 44%
    12:00 +34°C° 0 mm 1 m/S 701 mmHg 34%
    13:00 +36°C° 0 mm 1 m/S 700 mmHg 25%
    14:00 +36°C° 0 mm 1 m/S 699 mmHg 25%
    15:00 +36°C° 0 mm 1 m/S 699 mmHg 24%
    16:00 +35°C° 0 mm 1 m/S 698 mmHg 24%
    17:00 +33°C° 0 mm 1 m/S 698 mmHg 30%
    18:00 +30°C° 0 mm 1 m/S 698 mmHg 36%
    19:00 +27°C° 0 mm 1 m/S 698 mmHg 42%
    20:00 +26°C° 0 mm 1 m/S 699 mmHg 47%
    21:00 +26°C° 0 mm 1 m/S 699 mmHg 51%
    22:00 +25°C° 0 mm 1 m/S 700 mmHg 56%
    23:00 +24°C° 0 mm 1 m/S 700 mmHg 63%

    20 Januar, Samstag

    Zeit Temperatur Niederschläge Wind Luftdruck Luftfeuchtigkeit
    00:00 +23°C° 0 mm 1 m/S 699 mmHg 70%
    01:00 +23°C° 0 mm 1 m/S 699 mmHg 78%
    02:00 +22°C° 0 mm 1 m/S 699 mmHg 83%
    03:00 +21°C° 0 mm 1 m/S 699 mmHg 89%
    04:00 +21°C° 0 mm 1 m/S 699 mmHg 95%
    05:00 +19°C° 0 mm 0 m/S 700 mmHg 94%
    06:00 +19°C° 0 mm 0 m/S 700 mmHg 94%
    07:00 +20°C° 0 mm 0 m/S 701 mmHg 93%
    08:00 +24°C° 0 mm 1 m/S 701 mmHg 80%
    09:00 +27°C° 0 mm 1 m/S 702 mmHg 67%
    10:00 +29°C° 0 mm 1 m/S 702 mmHg 54%
    11:00 +32°C° 0 mm 1 m/S 701 mmHg 45%
    12:00 +34°C° 0 mm 1 m/S 701 mmHg 36%
    13:00 +36°C° 0 mm 1 m/S 700 mmHg 26%
    14:00 +36°C° 0 mm 1 m/S 699 mmHg 25%
    15:00 +36°C° 0 mm 1 m/S 699 mmHg 24%
    16:00 +36°C° 0 mm 1 m/S 698 mmHg 23%
    17:00 +33°C° 0 mm 1 m/S 698 mmHg 29%
    18:00 +30°C° 0 mm 1 m/S 698 mmHg 35%
    19:00 +27°C° 0 mm 1 m/S 698 mmHg 41%
    20:00 +26°C° 0 mm 1 m/S 698 mmHg 45%
    21:00 +25°C° 0 mm 1 m/S 699 mmHg 49%
    22:00 +24°C° 0 mm 1 m/S 699 mmHg 53%
    23:00 +24°C° 0 mm 1 m/S 699 mmHg 58%

    21 Januar, Sonntag

    Zeit Temperatur Niederschläge Wind Luftdruck Luftfeuchtigkeit
    00:00 +23°C° 0 mm 1 m/S 699 mmHg 63%
    01:00 +22°C° 0 mm 1 m/S 699 mmHg 69%
    02:00 +22°C° 0 mm 1 m/S 699 mmHg 75%
    03:00 +22°C° 0 mm 1 m/S 699 mmHg 81%
    04:00 +22°C° 0 mm 1 m/S 699 mmHg 87%
    05:00 +22°C° 0 mm 1 m/S 700 mmHg 89%
    06:00 +22°C° 0 mm 1 m/S 700 mmHg 91%
    07:00 +22°C° 0 mm 1 m/S 700 mmHg 92%
    08:00 +25°C° 0 mm 1 m/S 701 mmHg 77%
    09:00 +28°C° 0 mm 1 m/S 702 mmHg 62%
    10:00 +30°C° 0 mm 1 m/S 702 mmHg 47%
    11:00 +33°C° 0 mm 1 m/S 701 mmHg 38%
    12:00 +35°C° 0 mm 1 m/S 700 mmHg 28%
    13:00 +37°C° 0 mm 1 m/S 700 mmHg 19%
    14:00 +36°C° 0 mm 1 m/S 699 mmHg 18%
    15:00 +36°C° 0 mm 1 m/S 698 mmHg 17%
    16:00 +36°C° 0 mm 1 m/S 698 mmHg 16%
    17:00 +33°C° 0 mm 1 m/S 698 mmHg 20%
    18:00 +30°C° 0 mm 1 m/S 697 mmHg 24%
    19:00 +25°C° 0 mm 0 m/S 697 mmHg 28%
    20:00 +24°C° 0 mm 0 m/S 698 mmHg 29%
    21:00 +23°C° 0 mm 0 m/S 698 mmHg 29%
    22:00 +22°C° 0 mm 0 m/S 699 mmHg 30%
    23:00 +23°C° 0 mm 1 m/S 699 mmHg 36%
    Mehr zeigen